Погода в Самбурове

Россия / Ростовская область     48°24′10″N   40°35′30″E
темп.,
°C
ветер,
м/с
пор.,
м/с
влажн.,
%
обл.,
%
осадки,
мм/ч
давл.,
гПа
погр.,
м
5 марта, пт
пт500:00+3зюз8177535 0.0 1012669
03:00+3юз8177951 0.0 1012627
06:00+1зюз7168580 0.0 1011569
09:00+3зюз7138785 0.1 1011604
12:00+4зюз61186100 0.0 1012665
15:00+4зюз71193100 0.3 1012651
18:00+4зюз3798100 1.0 1013302
21:00+3зюз2398100 3.4 1014102
6 марта, сб
сб600:00+3сз1298100 2.1 101488
03:00+2ссв4698100 3.8 1014238
06:00+1св3498100 0.4 1013129
09:00+1ссв5798100 2.1 1013222
12:00+1ссв5896100 1.3 1013476
15:000с6996100 2.5 1012576
18:00−1ссз6995100 1.3 1013585
21:00−1ссз61185100 2.2 1016857
7 марта, вс
вс700:00−4сз7128172 0.1 1018590
03:00−5сз6128136 0.1 1021694
06:00−5зсз510750 0.0 1022533
09:00−3з57710 0.0 1023708
12:00−1зюз79650 0.0 10211288
15:00+1зюз8125848 0.0 10191548
18:000юз6136598 0.0 1016930
21:00−1зюз8176171 0.0 1015851
8 марта, пн
пн800:00−1зюз8166722 0.0 1014896
03:00−1зюз8166930 0.0 1013762
06:00−1зюз8167036 0.0 1012656
09:00+1зюз10156528 0.0 10111310
12:00+3зюз101565100 0.0 10111482
15:00+4з91464100 0.1 10101553
18:00+1з6137795 0.1 1010710
21:00−1сз7119391 0.9 1012696
9 марта, вт
вт900:00−3сз386997 0.1 1015584
03:00−5ссз246494 0.1 1016521
06:00−5зсз2262100 0.0 1017310
09:00−3зсз3452100 0.0 1018548
12:00−1зсз44363 0.0 10181253
15:000зсз57381 0.0 10171662
18:00−2зсз475737 0.0 1017270
21:00−2сз477264 0.0 1020700